Precipitable_Water
1.32 1.28 1.13 0.83 0.62 0.59 0.62 0.49 0.31 0.60 0.67 0.37 0.38 0.32 0.39 0.48 0.46 0.50 0.40 0.38 0.36 0.34 0.32 0.31 0.33 0.38 0.43 0.52 0.48 0.40 0.48 0.41 0.34 0.39 0.54 0.56 0.49 0.42 0.40 0.31 0.27 0.28 0.28 0.24
1.30 1.25 1.08 0.83 0.58 0.59 0.55 0.40 0.39 0.61 0.60 0.27 0.30 0.37 0.38 0.44 0.43 0.46 0.39 0.33 0.39 0.42 0.33 0.29 0.36 0.41 0.54 0.57 0.52 0.46 0.49 0.39 0.30 0.34 0.41 0.48 0.42 0.44 0.43 0.40 0.38 0.30 0.21 0.22
1.28 1.21 1.05 0.79 0.57 0.61 0.59 0.40 0.26 0.39 0.46 0.45 0.37 0.32 0.33 0.35 0.47 0.43 0.43 0.40 0.39 0.35 0.33 0.39 0.34 0.39 0.49 0.56 0.55 0.55 0.54 0.41 0.35 0.27 0.32 0.37 0.35 0.38 0.41 0.38 0.29 0.28 0.26 0.26
1.26 1.19 1.04 0.74 0.55 0.62 0.59 0.42 0.33 0.33 0.25 0.32 0.37 0.38 0.34 0.32 0.33 0.44 0.44 0.39 0.42 0.36 0.32 0.36 0.34 0.39 0.46 0.53 0.54 0.52 0.50 0.37 0.38 0.39 0.42 0.42 0.39 0.36 0.35 0.33 0.34 0.29 0.29 0.29
1.23 1.17 1.02 0.65 0.53 0.59 0.48 0.32 0.32 0.36 0.34 0.37 0.35 0.37 0.33 0.32 0.35 0.39 0.34 0.35 0.38 0.41 0.37 0.39 0.35 0.37 0.39 0.41 0.51 0.48 0.49 0.33 0.37 0.35 0.39 0.39 0.34 0.38 0.39 0.37 0.38 0.37 0.36 0.34
1.21 1.14 0.97 0.58 0.52 0.52 0.41 0.42 0.42 0.36 0.33 0.35 0.33 0.33 0.35 0.35 0.36 0.42 0.41 0.40 0.38 0.37 0.42 0.45 0.48 0.49 0.48 0.48 0.44 0.42 0.42 0.36 0.32 0.25 0.31 0.30 0.24 0.29 0.33 0.36 0.40 0.39 0.33 0.38
1.18 1.08 0.87 0.56 0.52 0.47 0.41 0.38 0.38 0.33 0.25 0.33 0.33 0.37 0.37 0.36 0.37 0.33 0.38 0.42 0.39 0.42 0.51 0.51 0.48 0.47 0.47 0.47 0.49 0.50 0.42 0.38 0.35 0.28 0.28 0.18 0.28 0.35 0.34 0.33 0.37 0.38 0.38 0.41
1.15 1.06 0.83 0.56 0.51 0.51 0.41 0.42 0.38 0.35 0.28 0.34 0.34 0.37 0.37 0.39 0.40 0.36 0.35 0.38 0.44 0.50 0.46 0.36 0.32 0.34 0.35 0.38 0.42 0.42 0.45 0.40 0.32 0.27 0.25 0.28 0.31 0.33 0.33 0.32 0.34 0.41 0.39 0.40
1.11 1.00 0.78 0.56 0.52 0.54 0.43 0.41 0.45 0.40 0.33 0.30 0.38 0.36 0.39 0.35 0.34 0.35 0.37 0.45 0.50 0.48 0.40 0.33 0.25 0.23 0.29 0.28 0.32 0.41 0.40 0.39 0.30 0.26 0.20 0.17 0.30 0.38 0.41 0.39 0.26 0.41 0.40 0.39
1.06 0.95 0.74 0.52 0.49 0.51 0.44 0.40 0.50 0.40 0.31 0.36 0.37 0.34 0.36 0.43 0.38 0.34 0.38 0.40 0.41 0.47 0.35 0.29 0.26 0.26 0.32 0.25 0.26 0.27 0.29 0.31 0.26 0.27 0.24 0.27 0.36 0.40 0.44 0.25 0.28 0.43 0.45 0.44
1.05 0.97 0.68 0.49 0.48 0.48 0.46 0.43 0.52 0.43 0.33 0.38 0.40 0.40 0.39 0.39 0.38 0.32 0.36 0.36 0.39 0.38 0.32 0.31 0.30 0.28 0.30 0.30 0.34 0.31 0.28 0.26 0.26 0.28 0.26 0.22 0.42 0.42 0.33 0.39 0.44 0.44 0.44 0.43
1.01 0.96 0.75 0.51 0.50 0.52 0.49 0.42 0.50 0.51 0.39 0.39 0.46 0.46 0.49 0.47 0.46 0.41 0.40 0.38 0.39 0.41 0.37 0.35 0.35 0.29 0.32 0.30 0.25 0.37 0.27 0.30 0.28 0.29 0.29 0.39 0.40 0.36 0.42 0.43 0.42 0.43 0.41 0.41
0.95 0.89 0.74 0.54 0.54 0.53 0.50 0.45 0.46 0.45 0.38 0.37 0.38 0.36 0.46 0.50 0.51 0.53 0.37 0.39 0.42 0.41 0.48 0.40 0.37 0.30 0.35 0.26 0.27 0.31 0.33 0.35 0.28 0.27 0.33 0.34 0.37 0.40 0.41 0.41 0.39 0.41 0.43 0.43
0.90 0.85 0.62 0.55 0.56 0.54 0.52 0.46 0.49 0.45 0.38 0.28 0.30 0.43 0.38 0.45 0.46 0.46 0.48 0.46 0.46 0.45 0.44 0.37 0.35 0.31 0.37 0.31 0.33 0.31 0.33 0.33 0.28 0.28 0.32 0.35 0.37 0.39 0.42 0.43 0.44 0.44 0.46 0.45
0.89 0.78 0.62 0.57 0.55 0.56 0.54 0.50 0.50 0.50 0.37 0.27 0.30 0.39 0.42 0.43 0.40 0.36 0.38 0.39 0.38 0.36 0.32 0.31 0.28 0.33 0.31 0.31 0.29 0.26 0.31 0.29 0.25 0.26 0.36 0.38 0.39 0.44 0.45 0.43 0.43 0.44 0.44 0.44
0.75 0.68 0.62 0.57 0.55 0.53 0.47 0.37 0.47 0.49 0.45 0.31 0.26 0.39 0.39 0.41 0.41 0.37 0.34 0.34 0.32 0.31 0.28 0.26 0.27 0.31 0.28 0.20 0.20 0.27 0.31 0.33 0.35 0.35 0.44 0.44 0.45 0.42 0.42 0.38 0.39 0.41 0.43 0.45
0.74 0.66 0.61 0.57 0.56 0.52 0.44 0.38 0.43 0.49 0.43 0.24 0.21 0.23 0.36 0.39 0.38 0.37 0.35 0.35 0.31 0.30 0.26 0.25 0.25 0.25 0.26 0.23 0.19 0.27 0.30 0.35 0.38 0.41 0.40 0.34 0.34 0.32 0.36 0.33 0.30 0.31 0.31 0.34
0.66 0.70 0.62 0.53 0.55 0.54 0.43 0.46 0.46 0.37 0.26 0.25 0.16 0.17 0.23 0.35 0.26 0.25 0.35 0.30 0.31 0.30 0.27 0.28 0.25 0.27 0.27 0.20 0.27 0.30 0.33 0.34 0.34 0.34 0.33 0.31 0.30 0.27 0.24 0.24 0.23 0.21 0.21 0.22
0.71 0.60 0.53 0.54 0.50 0.43 0.40 0.47 0.40 0.33 0.22 0.15 0.19 0.15 0.13 0.30 0.27 0.30 0.31 0.33 0.24 0.30 0.25 0.25 0.27 0.25 0.20 0.26 0.29 0.29 0.31 0.27 0.25 0.25 0.25 0.22 0.20 0.20 0.22 0.22 0.22 0.21 0.21 0.22
0.62 0.53 0.48 0.42 0.48 0.54 0.49 0.38 0.24 0.20 0.22 0.21 0.17 0.23 0.16 0.26 0.26 0.24 0.26 0.28 0.24 0.19 0.25 0.30 0.24 0.22 0.30 0.31 0.31 0.31 0.26 0.25 0.24 0.19 0.16 0.18 0.18 0.20 0.20 0.21 0.23 0.24 0.24 0.24
0.54 0.45 0.43 0.52 0.54 0.41 0.29 0.20 0.17 0.18 0.16 0.21 0.21 0.22 0.18 0.30 0.22 0.22 0.28 0.23 0.25 0.19 0.25 0.24 0.23 0.22 0.27 0.32 0.29 0.27 0.27 0.26 0.25 0.24 0.23 0.24 0.23 0.22 0.23 0.24 0.25 0.24 0.23 0.22
0.49 0.47 0.48 0.42 0.32 0.23 0.18 0.18 0.19 0.17 0.14 0.21 0.19 0.22 0.24 0.27 0.31 0.25 0.27 0.23 0.25 0.19 0.31 0.24 0.19 0.27 0.31 0.30 0.24 0.24 0.25 0.24 0.24 0.25 0.24 0.24 0.24 0.26 0.26 0.25 0.22 0.20 0.20 0.19
0.50 0.34 0.27 0.23 0.24 0.19 0.19 0.16 0.18 0.16 0.20 0.22 0.22 0.20 0.25 0.27 0.30 0.27 0.26 0.21 0.21 0.30 0.22 0.19 0.23 0.28 0.27 0.24 0.23 0.23 0.25 0.25 0.26 0.26 0.26 0.25 0.23 0.24 0.23 0.19 0.19 0.23 0.22 0.23
0.29 0.21 0.17 0.17 0.18 0.23 0.27 0.26 0.21 0.25 0.24 0.24 0.24 0.23 0.24 0.29 0.26 0.25 0.20 0.24 0.24 0.18 0.16 0.17 0.24 0.25 0.24 0.25 0.27 0.26 0.25 0.26 0.24 0.22 0.21 0.19 0.18 0.19 0.19 0.18 0.23 0.23 0.21 0.22
0.24 0.21 0.16 0.19 0.27 0.30 0.31 0.29 0.28 0.29 0.30 0.26 0.25 0.25 0.26 0.23 0.21 0.23 0.22 0.19 0.16 0.17 0.16 0.23 0.26 0.24 0.24 0.25 0.26 0.24 0.21 0.20 0.17 0.17 0.17 0.18 0.19 0.18 0.18 0.21 0.23 0.25 0.25 0.24
0.24 0.23 0.22 0.26 0.27 0.30 0.30 0.29 0.28 0.34 0.33 0.29 0.25 0.22 0.20 0.19 0.20 0.17 0.16 0.16 0.13 0.16 0.22 0.27 0.25 0.24 0.25 0.24 0.22 0.19 0.18 0.18 0.18 0.19 0.19 0.19 0.19 0.19 0.20 0.22 0.24 0.25 0.25 0.24
0.26 0.24 0.28 0.30 0.29 0.31 0.33 0.35 0.33 0.35 0.28 0.22 0.22 0.18 0.17 0.22 0.17 0.16 0.19 0.15 0.18 0.23 0.24 0.24 0.23 0.22 0.21 0.20 0.18 0.17 0.17 0.18 0.18 0.19 0.19 0.20 0.22 0.23 0.22 0.21 0.21 0.22 0.22 0.21
Wind_Speed
28 24 19 16 12 9 6 4 5 6 7 9 10 11 11 12 9 7 5 5 4 4 6 5 6 9 9 12 14 11 9 7 8 11 10 11 11 12 12 10 11 9 8 8
28 23 20 16 14 12 6 3 3 3 5 7 8 10 10 10 7 5 4 4 3 3 4 4 8 8 8 8 9 9 9 7 9 8 11 13 12 12 12 11 9 11 10 10
29 25 20 17 15 14 7 3 1 2 3 5 8 7 9 9 7 7 4 6 5 4 4 4 7 9 8 8 7 7 7 8 7 8 8 11 13 14 14 12 11 13 14 13
30 25 22 18 16 16 9 5 2 0 1 2 4 8 7 8 7 5 3 3 1 2 5 7 7 7 9 7 7 7 5 7 7 6 4 5 7 12 16 15 16 13 14 16
29 27 23 20 18 17 10 6 3 1 1 2 2 6 6 7 7 6 4 2 3 2 4 5 9 9 9 7 9 7 7 6 5 7 6 6 7 8 10 15 16 16 17 18
29 27 24 21 20 18 11 7 4 2 3 3 2 4 5 7 6 6 6 5 5 4 3 2 5 7 8 7 9 10 8 7 7 7 7 9 10 11 14 12 12 13 15 14
28 27 25 22 21 19 11 10 7 4 3 4 1 4 5 6 5 5 5 4 3 2 4 4 4 6 7 6 6 8 9 8 8 9 8 9 9 9 10 11 11 12 14 14
29 27 25 22 22 19 12 10 8 5 5 4 3 3 5 5 6 7 5 3 2 3 4 5 5 4 6 6 7 8 8 9 9 10 12 11 12 11 11 12 12 12 14 15
30 27 25 23 22 21 14 11 9 6 7 3 4 4 4 4 5 5 5 4 2 2 4 4 5 6 5 7 7 8 9 9 9 9 10 11 10 9 12 13 14 13 14 16
30 28 25 22 21 20 15 12 11 8 5 3 3 3 2 2 4 5 5 5 3 1 1 3 4 6 6 7 8 8 9 10 11 11 11 10 11 13 12 12 12 12 15 17
30 28 26 22 21 20 16 13 12 9 6 5 4 3 2 1 2 3 4 4 3 2 1 0 2 3 5 6 7 8 8 8 9 9 10 11 10 10 11 12 13 15 17 19
30 30 25 23 22 20 15 13 12 10 7 7 7 5 3 2 2 2 3 4 4 3 3 1 1 2 3 5 7 9 8 9 9 8 9 9 10 11 11 13 15 18 21 22
32 28 23 24 22 19 16 15 14 11 9 8 5 3 3 2 1 1 1 2 3 2 2 2 2 2 4 5 6 6 9 10 11 11 10 11 14 12 14 16 19 21 22 22
32 27 25 25 22 20 19 16 13 11 10 6 6 4 3 1 1 1 1 1 2 3 3 3 3 3 3 5 7 8 9 10 11 15 14 14 12 16 19 20 21 22 23 23
32 28 26 25 23 22 21 16 12 11 7 8 8 6 3 2 2 2 2 2 2 2 3 4 3 3 4 5 7 9 10 11 12 13 13 16 18 19 19 19 20 21 22 22
31 29 26 26 26 24 19 13 11 10 12 9 5 5 3 3 3 3 3 2 2 3 3 3 4 4 4 5 6 6 7 8 10 12 14 15 16 15 15 17 18 19 20 21
31 30 29 28 25 20 14 12 15 14 10 7 6 3 3 2 2 1 1 2 2 3 3 4 4 4 5 6 7 4 5 6 8 9 11 11 12 15 17 18 18 19 20 21
31 31 30 27 24 19 14 17 15 12 8 4 3 3 3 2 2 1 2 2 3 4 4 5 5 6 6 8 7 6 7 8 8 9 11 13 15 16 16 18 20 21 22 23
33 33 30 24 19 16 19 16 13 8 5 4 4 4 3 3 2 1 2 4 5 6 7 7 7 8 9 11 8 9 10 11 12 13 15 16 17 19 20 22 23 24 25 26
34 30 22 19 17 20 19 13 10 6 5 4 4 4 3 3 3 4 5 7 7 8 9 9 10 12 12 11 11 12 13 14 15 17 18 20 22 24 26 27 29 30 32 32
29 23 19 21 20 17 12 10 9 7 5 5 5 4 4 4 4 5 7 7 9 9 10 11 12 13 13 12 13 14 16 17 18 20 23 25 28 30 32 34 35 36 38 38
26 23 23 21 16 12 9 9 8 7 8 7 6 5 4 5 7 7 9 10 10 10 11 12 13 13 13 13 15 17 18 20 22 25 27 30 32 33 35 36 38 38 39 40
26 21 19 17 12 10 11 11 9 8 8 8 7 6 6 7 8 9 10 9 10 10 11 13 13 13 13 14 16 19 21 24 26 29 32 33 34 36 37 38 38 39 41 42
21 19 17 14 11 11 8 10 9 9 8 8 6 6 7 8 8 9 9 9 10 11 12 14 14 14 14 17 19 23 26 28 30 33 34 35 36 37 38 38 40 42 44 44
19 16 16 14 10 8 8 7 7 8 8 7 6 6 7 8 8 9 9 10 11 12 14 15 15 15 18 21 24 27 30 31 33 34 35 36 37 37 39 40 40 41 41 39
17 14 13 15 12 10 8 7 7 8 7 6 6 6 7 8 7 8 10 10 13 15 15 16 17 19 22 25 28 30 32 32 34 35 35 36 37 38 39 40 39 37 35 33
15 13 14 13 11 10 10 8 8 8 7 6 6 6 8 8 8 10 11 13 15 15 17 18 21 23 26 28 29 31 31 32 33 34 35 37 39 39 39 37 34 32 30 30
Wind_Direction
227 226 232 236 238 226 229 290 336 357 11 15 19 27 33 30 46 48 71 112 124 117 123 112 130 143 152 169 186 189 194 190 185 193 210 208 215 209 209 200 220 218 203 223
217 221 223 227 224 208 220 256 337 358 10 14 21 34 44 29 44 54 101 116 156 143 128 140 140 145 158 152 169 186 195 193 189 198 214 211 218 214 221 222 219 219 216 228
213 215 217 219 213 203 215 231 312 355 357 14 20 44 45 46 37 57 75 110 136 166 156 154 160 157 169 170 170 188 196 194 196 202 221 211 219 221 219 218 222 226 228 240
209 210 211 212 204 200 210 226 248 278 12 4 25 33 52 64 50 52 81 131 161 146 171 163 169 170 171 180 183 195 202 191 204 204 224 211 228 223 224 223 232 236 243 249
206 209 206 205 199 197 212 217 225 217 108 107 57 41 44 64 62 44 73 106 157 163 120 181 188 181 192 196 200 206 200 205 200 222 220 226 232 244 232 229 232 237 249 258
204 204 202 200 197 194 208 212 212 199 162 147 108 52 60 63 73 53 59 77 119 129 138 158 185 195 192 207 207 211 220 217 226 235 248 252 254 248 242 243 248 254 253 262
200 199 197 198 196 196 208 205 197 198 187 183 144 71 69 72 48 73 71 59 101 145 177 176 177 183 190 193 208 215 222 231 234 246 256 254 248 257 255 255 258 264 263 271
198 197 197 198 194 196 202 198 196 195 172 163 138 111 88 78 62 65 62 56 94 165 194 186 186 196 207 221 235 232 234 229 242 244 248 250 255 257 259 259 263 269 272 276
195 195 194 196 193 195 197 196 194 193 166 177 177 128 129 98 65 65 58 61 87 171 213 219 226 223 224 219 221 241 249 251 248 250 261 266 255 267 270 268 259 272 275 278
194 192 192 191 190 191 193 193 187 182 172 170 163 152 127 61 63 53 65 57 75 101 199 235 242 235 256 237 238 240 246 253 253 260 265 270 272 273 268 261 268 274 280 281
190 188 188 187 183 184 187 185 186 186 175 164 155 155 149 99 67 60 61 62 47 75 58 212 270 256 251 254 246 248 241 247 250 249 256 267 280 271 271 272 279 285 286 287
187 182 182 181 178 179 180 180 177 171 165 164 145 131 134 116 70 62 65 40 48 50 38 7 316 267 264 263 251 253 252 254 260 270 264 266 281 282 275 286 287 289 289 289
186 185 181 180 179 179 178 171 168 165 160 149 161 152 139 125 112 46 53 34 36 38 29 358 327 311 288 268 259 263 256 266 262 272 272 277 282 283 290 294 292 292 291 291
186 185 181 179 178 177 173 170 170 168 160 162 159 157 156 178 131 68 28 86 45 57 19 6 346 323 295 290 277 274 269 277 272 269 278 279 288 291 296 295 295 295 295 293
182 178 174 175 171 168 166 164 164 163 166 159 148 136 109 114 124 99 70 64 41 13 9 0 350 336 314 301 292 280 274 275 274 276 277 282 286 293 296 298 299 300 299 297
177 176 173 169 166 163 165 166 172 166 152 149 147 149 124 108 104 95 76 52 32 15 18 9 360 346 334 329 312 306 298 289 284 282 290 289 290 296 301 304 306 307 306 305
175 173 167 166 167 171 177 177 169 158 157 151 142 146 160 145 144 114 65 33 13 3 360 354 350 341 329 323 313 300 304 305 303 301 302 299 299 298 301 302 306 308 309 310
168 167 165 163 162 164 164 155 157 158 157 164 169 162 167 181 168 201 303 316 326 333 329 330 325 327 317 314 306 310 306 308 305 302 301 299 301 304 306 305 305 306 307 308
162 160 160 165 170 174 170 164 162 163 177 183 184 176 193 205 225 274 298 305 308 308 310 312 315 308 305 307 300 303 305 304 301 302 302 301 302 302 303 305 305 304 305 306
162 163 170 174 176 165 168 180 189 202 210 204 194 211 209 230 248 283 294 302 306 306 307 308 304 300 296 307 307 304 303 302 301 302 302 301 300 300 301 302 302 301 301 301
168 171 173 168 166 169 180 190 197 208 210 212 208 214 223 261 273 289 300 298 304 302 308 301 305 305 303 300 300 300 302 301 300 300 301 300 299 299 299 300 301 300 300 298
171 168 163 166 174 183 189 199 209 215 216 214 214 226 253 273 287 295 294 301 303 305 308 306 307 308 307 306 304 304 304 303 302 301 302 301 301 300 301 300 300 300 299 298
165 168 174 180 193 197 201 201 215 213 210 212 218 245 269 284 292 298 297 298 303 310 307 308 311 310 309 308 308 309 307 305 304 305 305 304 303 302 302 301 300 300 299 298
176 178 180 191 201 207 209 211 208 210 203 199 226 264 284 289 295 295 304 303 307 307 310 309 311 310 310 312 311 311 310 309 307 306 306 306 305 304 303 302 302 301 301 300
183 187 192 200 194 189 185 184 191 196 199 225 251 279 287 294 296 296 305 312 305 303 308 312 313 312 312 312 313 313 311 310 310 310 310 310 309 308 307 306 305 305 305 304
186 192 193 190 185 188 192 189 200 216 219 242 268 279 293 293 291 302 296 304 301 308 310 312 313 313 314 314 313 314 314 313 313 314 313 313 313 311 310 309 308 307 306 305
188 192 181 185 183 188 196 210 215 207 228 253 267 285 279 292 299 301 299 301 308 309 310 311 312 313 314 316 317 318 317 316 317 318 317 316 316 315 314 312 311 311 309 307